Theta_e
334 334 336 338 338 337 337 336 334 333 335 335 334 334 335 335 335 335 335 334 333 333 333 334 335 335 333 332 330 329 329 330 331 333 333 334 335 335 335 335 334 334 334 334 335 335 334 332 331 332 332 333 334 333 333 334 333 333 333 332 331 331 331 330 330 330 331 330 330 330 329 330 330 330 329 328 328 328 328 328 327 327 327 327 327
333 334 336 337 337 337 336 335 334 334 335 335 334 335 335 335 336 337 335 333 332 332 332 332 333 332 330 330 329 329 330 332 333 333 333 334 335 334 335 334 334 334 335 334 334 334 333 332 333 333 332 333 334 334 333 333 333 333 333 332 331 331 331 332 331 330 330 330 330 330 329 330 329 329 329 328 327 328 327 326 324 324 326 326 326
335 336 337 337 337 337 335 334 333 334 334 335 335 336 336 336 336 336 333 330 330 330 330 330 329 328 329 329 329 329 330 331 330 331 332 334 334 334 334 334 334 334 334 334 334 333 332 332 333 333 333 333 334 334 333 332 332 333 333 332 331 331 332 332 332 330 331 330 330 331 332 331 330 327 327 327 326 326 326 324 322 323 326 326 326
336 337 337 338 338 338 335 333 334 333 333 334 335 336 336 334 334 333 331 328 329 329 329 328 327 327 328 329 329 330 330 330 330 330 331 332 333 334 334 333 332 332 333 333 333 332 332 332 332 332 332 333 332 333 334 333 333 332 333 332 331 330 331 332 331 330 331 330 330 332 330 332 333 329 326 326 325 324 324 323 323 324 326 326 326
337 338 337 338 338 338 335 333 333 333 333 334 334 335 334 332 331 331 329 327 329 329 328 327 326 326 327 327 327 328 329 329 330 330 329 329 331 332 332 332 331 331 331 332 332 332 332 331 331 331 331 331 331 332 334 333 333 333 333 331 330 330 330 330 330 329 330 330 330 331 330 333 335 330 327 325 322 323 322 322 323 325 325 325 325
337 339 338 338 338 338 336 333 333 332 332 333 334 333 332 332 331 329 327 327 328 328 327 327 324 322 323 323 324 327 328 327 326 327 328 329 330 330 330 330 329 329 329 330 330 331 330 330 330 330 330 330 330 332 334 333 333 333 333 332 330 330 330 330 329 328 329 330 330 331 331 332 331 329 331 326 320 321 321 321 323 324 325 324 324
338 339 338 338 338 338 338 335 333 333 332 332 333 333 332 330 328 326 326 326 327 326 326 324 321 320 320 321 324 327 326 325 325 326 328 328 327 327 328 327 327 327 327 327 327 328 327 327 328 328 329 330 329 330 332 332 332 331 331 331 330 329 329 329 328 327 328 329 330 330 329 329 327 327 330 327 322 321 320 321 322 322 322 323 323
337 339 338 338 338 337 338 336 335 333 333 332 333 333 332 329 325 324 325 325 326 325 323 320 320 323 324 325 327 328 325 324 324 325 325 324 321 324 327 326 326 326 326 326 326 327 327 327 327 326 327 328 328 328 328 329 331 331 330 331 330 328 328 329 329 328 328 329 329 329 328 328 327 326 326 324 323 323 320 320 320 320 320 321 322
337 338 338 338 337 338 338 338 336 334 334 333 332 333 332 329 326 326 326 327 327 325 322 323 325 327 328 328 328 327 325 322 323 322 322 323 322 325 327 326 326 326 325 326 325 326 326 326 326 326 326 327 327 328 327 328 330 330 329 330 330 329 328 328 329 329 329 329 329 329 329 328 327 326 324 320 320 322 321 320 319 319 319 319 320
337 338 338 337 337 338 338 338 338 336 334 333 332 332 331 330 330 330 330 329 329 327 325 327 328 328 328 328 327 325 324 322 321 322 322 324 324 325 325 326 326 326 325 326 326 326 325 325 325 325 326 327 327 328 329 329 330 330 329 329 329 329 329 328 328 328 329 329 329 328 329 328 327 327 326 322 319 319 320 319 318 319 319 319 318
337 338 337 335 336 338 338 338 338 336 335 334 334 332 331 332 333 333 332 330 330 329 328 328 328 327 326 326 324 322 322 322 321 321 322 323 323 323 324 325 326 325 325 326 326 325 325 325 325 325 325 326 327 327 327 328 329 330 330 329 330 330 329 329 328 328 328 329 329 329 328 327 326 327 325 324 321 318 319 319 317 317 319 318 318
337 337 335 334 336 337 337 337 337 337 336 335 334 332 330 332 333 335 333 332 331 330 329 329 327 325 324 323 322 322 322 322 321 322 322 322 322 323 324 325 325 324 324 325 324 324 325 325 325 324 325 326 326 326 327 329 330 329 329 330 330 330 329 329 328 327 328 328 328 328 328 326 326 325 324 324 321 318 318 318 316 317 316 317 318
337 336 334 334 336 336 336 337 337 337 336 335 334 332 330 331 333 334 334 332 330 329 328 328 326 324 322 322 322 322 323 322 322 322 322 322 323 324 324 325 324 323 324 324 324 324 324 325 324 324 325 325 325 326 327 329 330 329 329 329 329 329 328 327 326 326 326 326 326 326 326 326 324 322 322 322 321 318 317 315 314 314 313 313 314
336 335 333 333 334 334 335 336 336 336 336 335 333 332 330 330 332 333 333 331 328 328 329 327 326 324 322 322 322 323 322 322 322 323 322 323 322 323 324 324 324 323 323 324 325 325 325 324 324 324 325 324 325 326 328 329 329 329 328 328 328 328 326 324 322 322 321 322 322 321 320 320 317 317 320 321 321 318 316 314 313 314 312 311 310
335 334 333 332 331 332 335 336 336 336 335 334 333 332 332 331 331 330 330 331 330 329 329 328 326 324 322 323 323 323 322 321 322 322 322 322 321 322 323 324 323 323 324 324 325 325 324 324 324 324 324 324 324 326 327 328 328 327 326 326 326 325 322 319 317 315 314 314 315 314 314 314 314 315 317 319 320 318 315 314 313 314 315 312 308
335 334 334 333 332 333 335 335 335 336 335 335 334 333 333 332 331 328 328 332 333 331 329 328 327 326 324 323 322 322 321 321 321 321 321 321 322 323 324 323 323 324 323 324 323 323 324 325 324 323 323 323 323 325 324 325 325 325 324 323 322 321 318 316 314 314 313 313 313 313 313 314 314 315 315 316 317 316 315 314 313 314 315 313 311
335 336 337 335 333 333 333 333 333 335 334 334 334 333 333 333 333 332 332 334 334 332 329 328 328 328 325 323 322 322 321 320 320 320 321 322 323 323 323 323 323 323 322 321 321 321 323 324 322 322 321 321 321 322 321 321 322 322 322 321 320 319 317 314 314 314 313 313 314 313 314 314 315 315 315 315 316 316 315 315 314 313 312 313 316
335 336 335 333 330 329 329 330 331 332 332 332 334 334 334 334 334 334 332 329 329 331 331 330 328 328 326 324 323 323 321 321 320 320 321 323 323 322 322 321 321 321 320 319 319 320 322 322 321 320 319 319 318 319 318 318 318 318 318 318 317 316 315 314 314 315 314 314 313 314 314 314 315 315 315 316 316 316 316 316 315 313 311 311 315
335 334 334 333 329 327 327 328 330 331 332 332 334 332 329 330 331 332 330 327 327 330 332 331 329 328 327 325 323 322 321 321 321 321 322 323 322 321 320 320 320 320 319 318 318 319 320 319 318 317 317 317 317 317 317 317 316 315 315 315 315 315 316 316 317 317 316 315 313 313 313 314 315 315 315 316 316 316 316 316 316 315 313 311 311
333 332 334 332 329 327 328 328 329 330 330 330 331 328 325 325 325 327 330 330 330 330 330 330 329 329 327 324 323 322 321 321 321 321 322 323 322 321 320 319 319 319 319 317 316 317 317 316 315 315 316 316 315 316 316 315 315 314 314 314 315 316 317 317 317 316 315 315 314 315 315 315 315 316 316 316 316 316 316 316 316 316 314 313 311
331 331 333 331 328 328 328 328 330 330 329 328 328 326 325 324 324 326 329 330 330 329 329 329 329 329 326 323 323 323 322 322 321 321 322 322 321 320 319 318 318 317 316 315 314 315 315 315 314 314 314 314 314 314 314 314 314 313 313 313 315 316 317 317 317 316 315 315 316 316 317 316 316 316 316 316 315 315 315 315 316 316 315 314 313
329 330 332 330 328 328 328 328 329 330 329 327 326 325 325 326 326 327 328 328 328 328 328 329 331 330 326 323 322 322 322 321 320 321 321 320 320 319 318 317 315 315 314 314 313 314 314 313 313 314 313 313 312 312 312 312 313 313 313 314 315 316 317 317 317 317 316 316 316 316 316 316 316 316 315 315 315 314 315 315 316 316 316 315 315
328 328 329 327 326 327 326 327 328 329 329 328 326 325 326 327 329 329 329 329 329 329 329 330 331 329 326 324 322 322 321 319 318 319 320 320 320 318 316 316 314 313 315 314 313 313 313 313 313 313 313 313 312 312 312 312 313 313 314 314 315 316 316 316 316 316 316 316 315 315 316 315 315 315 314 314 314 315 315 315 315 315 315 315 315
328 328 326 325 324 324 325 325 327 328 329 328 327 326 326 328 329 330 330 329 330 330 329 330 330 328 325 323 323 322 319 317 317 318 317 317 318 317 315 315 314 314 315 315 313 313 313 312 312 313 313 313 313 314 313 313 314 314 314 314 315 315 315 315 315 315 315 314 314 314 314 314 315 315 314 313 313 314 315 315 315 315 315 315 314
328 328 326 325 324 324 324 324 325 327 327 327 327 327 327 328 328 328 328 329 330 330 329 329 329 327 325 323 323 322 319 317 319 318 317 315 313 312 313 314 313 313 315 315 314 314 314 313 312 313 314 314 314 314 313 313 315 315 314 314 315 314 314 314 314 314 314 314 313 313 312 312 313 314 314 314 313 314 315 315 315 314 314 314 314
327 327 326 325 324 324 324 324 324 325 327 327 327 327 328 328 328 327 327 328 329 329 328 328 328 327 326 323 323 322 320 321 321 321 319 317 311 307 308 311 313 315 316 316 315 314 315 314 313 313 314 315 315 315 314 314 315 315 314 314 314 313 313 314 314 313 313 313 314 315 314 313 313 314 315 315 315 315 315 316 315 314 314 314 315
325 326 325 325 325 324 323 323 323 324 325 326 327 327 326 327 328 327 327 327 327 327 327 327 327 328 327 325 324 324 322 322 324 322 321 321 317 312 311 314 316 317 317 317 315 314 315 316 315 314 315 315 316 316 315 315 315 316 316 314 314 314 314 314 314 313 314 315 315 316 316 316 316 316 317 317 316 315 316 316 316 315 314 314 315
319 319 319 320 321 321 321 322 323 323 323 324 325 325 325 326 327 326 327 326 326 326 325 324 325 327 327 326 326 326 324 324 324 324 322 323 322 320 318 318 319 319 318 316 315 315 315 316 316 315 316 316 315 316 317 317 317 317 317 316 315 316 316 317 316 315 316 316 317 317 317 317 317 317 318 318 317 317 316 316 317 316 315 315 314
310 310 310 310 311 312 312 314 316 317 320 322 323 324 324 324 325 325 325 326 325 326 325 323 324 326 327 327 327 326 326 326 325 324 323 323 323 322 321 320 321 321 319 316 315 316 315 315 315 316 316 316 316 315 316 317 317 317 317 317 317 316 317 318 318 317 318 317 317 318 318 318 318 318 318 318 317 317 317 317 317 317 316 316 315
308 307 307 307 306 307 306 306 307 308 311 314 318 320 321 323 323 323 324 324 325 325 324 324 323 324 325 326 327 327 326 325 324 324 324 324 323 322 322 322 321 321 320 317 317 316 316 315 315 315 315 315 315 315 315 315 315 316 317 318 318 317 318 319 319 319 319 318 318 319 318 318 319 318 318 318 317 317 317 317 317 317 316 316 316
307 306 306 305 305 305 305 305 305 304 305 306 308 311 314 317 321 323 323 322 322 323 323 323 323 322 323 325 325 326 325 324 324 324 324 324 323 323 323 322 322 322 322 320 319 319 318 318 316 316 315 315 314 314 315 315 315 315 316 318 319 319 319 320 319 319 319 319 319 319 319 318 319 319 318 318 318 317 317 316 316 316 316 315 316
307 306 306 305 304 303 303 303 303 303 304 304 305 305 306 308 312 318 320 317 315 316 316 317 318 319 321 323 323 323 323 323 323 323 323 323 322 323 323 323 322 322 322 322 321 320 320 320 319 318 318 318 316 314 314 315 315 316 316 318 319 320 320 320 320 320 320 320 320 320 319 318 318 318 318 318 317 317 317 317 316 316 316 315 315
306 305 305 305 304 303 302 302 302 302 302 302 304 304 304 304 306 310 312 311 310 310 310 310 310 310 313 317 319 320 320 321 322 322 323 323 322 322 322 323 324 323 323 323 322 321 320 320 320 320 320 319 319 317 316 315 316 316 316 318 319 321 321 321 320 320 320 320 320 319 319 318 318 318 317 317 317 317 317 317 316 316 316 316 315
304 304 304 303 303 302 301 301 301 301 301 301 302 303 303 304 305 306 307 307 308 308 307 307 307 307 308 309 312 314 315 316 317 319 321 322 322 322 323 323 324 324 323 324 324 323 321 321 321 322 321 321 320 320 319 317 316 317 317 319 321 321 321 321 321 321 321 321 320 320 319 319 318 317 316 316 316 317 318 318 316 315 315 316 316
303 303 303 302 302 302 302 301 301 300 300 300 301 302 303 303 304 305 305 305 306 306 306 306 306 306 307 307 307 308 309 311 312 313 315 316 318 318 319 321 323 323 323 322 323 323 323 322 322 322 322 322 321 321 321 319 318 318 319 320 322 322 323 322 322 321 321 319 318 318 318 317 317 317 316 314 314 315 318 318 317 316 316 316 315
301 301 301 301 301 302 301 300 300 300 299 299 300 302 303 302 303 304 305 305 305 305 305 304 305 305 305 306 306 306 306 308 309 310 311 312 313 313 314 315 318 320 321 322 322 322 323 323 323 322 322 322 322 322 321 321 320 320 320 321 322 322 322 322 322 321 318 315 314 315 316 315 316 316 314 312 312 315 317 317 317 317 316 314 314
299 298 299 299 299 300 299 298 298 299 299 299 299 300 301 302 302 304 304 304 304 303 303 303 304 304 304 303 304 304 304 306 307 308 309 309 310 311 311 311 312 313 316 318 319 320 320 321 322 322 322 322 322 322 321 321 321 320 320 320 321 321 322 321 320 319 318 316 316 315 315 315 315 314 312 311 314 316 317 317 317 315 313 312 311
299 299 299 298 298 298 298 297 299 299 299 300 300 300 300 300 301 303 304 303 303 303 303 303 303 303 302 302 303 303 303 304 305 306 306 307 308 309 309 310 309 309 309 311 313 315 317 319 320 321 322 322 322 322 321 321 321 321 320 320 319 320 320 319 318 318 318 318 318 317 316 316 315 314 312 313 315 316 316 316 315 312 311 310 309
300 300 300 300 300 300 299 299 299 299 299 300 300 300 301 301 301 303 303 303 302 302 302 302 301 301 302 302 302 303 303 303 303 303 304 304 305 306 307 307 306 306 306 308 309 311 313 316 318 320 321 322 322 321 321 321 321 320 320 320 319 319 318 317 316 316 317 316 317 317 316 314 315 315 314 314 315 315 316 316 314 311 310 310 308
300 300 301 301 301 301 300 300 300 299 300 300 299 300 301 302 302 303 303 302 301 301 300 300 301 301 301 301 301 301 301 301 302 302 302 302 302 303 304 303 303 304 305 307 308 309 310 312 315 317 319 320 320 321 320 320 320 320 320 319 319 318 318 317 316 315 315 314 315 315 314 314 315 315 315 314 314 314 315 315 313 311 310 309 307
300 300 300 301 301 301 301 300 300 300 301 301 301 301 302 301 302 302 302 301 300 300 300 301 301 301 301 301 301 301 301 301 301 301 301 302 302 302 302 302 303 303 304 305 306 307 308 308 310 314 317 318 318 319 319 319 318 319 319 319 318 318 317 317 316 315 314 314 314 314 314 314 314 314 313 312 311 313 314 314 313 311 310 309 307
299 299 299 300 301 301 301 301 301 301 301 301 301 302 301 301 301 302 301 300 300 301 301 301 301 301 301 300 301 301 300 301 301 301 301 301 301 301 302 302 302 302 303 304 304 305 306 306 307 310 313 316 317 316 317 317 317 317 318 319 318 318 317 316 315 314 314 313 313 312 312 312 312 311 310 309 309 312 314 313 312 311 310 309 308
299 298 299 300 300 300 301 301 301 301 301 301 301 301 301 301 301 302 300 300 301 300 300 300 300 300 300 300 300 300 300 300 300 300 300 301 301 301 301 301 301 301 302 302 303 303 304 305 306 306 308 313 315 315 316 316 316 317 317 318 318 318 317 315 314 314 314 313 312 311 310 310 309 308 308 308 309 311 312 311 310 310 309 308 307
299 299 298 299 300 300 301 301 301 301 301 301 301 301 301 301 301 301 300 300 300 300 300 300 300 300 300 300 299 300 299 300 300 300 299 300 300 300 300 300 300 300 301 301 301 302 302 303 304 304 305 308 311 314 315 315 314 315 317 318 318 318 316 314 314 314 313 312 311 310 309 309 307 306 306 307 308 309 309 309 308 308 308 307 306
299 299 299 299 300 300 301 301 301 301 301 301 301 301 301 301 301 300 300 300 300 299 299 299 299 299 299 299 299 299 299 299 299 299 299 299 299 299 299 299 300 300 300 301 301 301 300 301 302 303 305 306 309 313 316 316 315 315 316 317 318 317 315 313 313 313 312 310 309 310 310 309 306 304 304 304 305 305 305 305 305 305 304 304 303
300 299 299 299 300 300 301 301 301 301 301 300 300 300 300 300 300 299 299 299 299 299 299 298 298 299 298 298 299 299 299 299 299 299 299 299 299 299 299 299 300 300 299 299 299 299 298 298 299 300 302 303 308 313 317 317 316 316 316 316 316 315 313 312 312 311 309 308 308 309 309 306 304 303 303 303 303 303 303 302 301 301 301 301 301
299 299 299 299 300 300 300 300 300 300 300 300 300 300 299 299 299 299 299 299 299 299 298 298 298 298 298 298 298 298 298 298 298 298 298 298 298 299 298 299 298 298 298 298 298 298 298 297 298 298 299 301 307 313 317 317 317 316 316 316 314 312 310 310 310 309 307 306 306 306 305 304 303 303 302 302 302 302 301 300 299 299 300 300 300
299 299 299 299 299 299 300 300 299 299 299 299 299 299 299 299 299 299 299 299 299 298 298 298 298 298 298 298 298 298 298 298 297 298 298 298 298 298 298 298 298 298 298 298 297 297 297 297 297 298 298 300 304 308 313 315 315 315 316 315 312 310 309 309 309 308 306 304 303 303 303 302 302 301 301 301 301 301 299 299 299 299 300 300 300
298 298 298 299 299 299 299 299 299 299 299 299 299 299 299 299 298 299 299 299 298 298 298 297 297 297 297 298 298 297 297 297 297 297 297 297 297 297 297 297 297 297 297 297 297 297 297 297 297 297 298 300 302 304 308 310 311 313 314 315 313 311 310 309 308 308 306 303 300 300 300 299 299 300 300 300 299 298 297 298 298 299 300 300 299
297 297 298 298 299 299 299 299 299 299 299 299 299 299 298 299 299 299 299 298 298 298 297 297 297 297 297 297 297 297 297 297 297 297 297 296 296 296 296 296 296 297 297 297 297 297 296 297 297 297 299 301 302 303 305 307 308 309 312 314 314 313 312 309 308 307 305 302 299 298 298 298 299 299 299 299 298 298 298 298 299 299 299 299 298
297 297 298 298 298 298 299 299 299 299 299 299 298 298 299 299 299 298 298 298 298 297 297 297 297 296 296 297 297 297 296 296 296 296 296 296 296 296 296 296 296 296 296 296 296 296 296 296 297 298 299 301 303 303 303 303 306 307 308 309 309 310 310 309 308 307 303 299 297 297 298 299 300 300 300 299 299 298 299 299 299 299 299 298 297
Wind_Speed
14 18 22 26 28 29 28 28 31 29 29 30 29 28 27 26 25 22 20 20 21 21 21 19 18 16 16 16 16 15 14 13 12 12 12 10 8 7 6 6 6 7 8 8 7 8 8 7 7 7 7 9 8 8 9 9 10 11 11 12 13 14 15 13 13 15 15 13 11 11 10 9 7 7 8 8 8 7 7 7 7 8 9 7 6
12 14 20 27 28 28 28 29 32 30 29 31 30 29 28 27 26 22 20 21 20 20 20 20 19 18 17 16 13 13 14 15 15 13 12 11 9 8 7 7 8 8 7 7 6 6 8 7 8 8 8 10 9 8 10 10 11 12 12 13 13 14 15 15 15 13 11 11 11 9 8 7 6 7 7 7 8 9 7 8 9 9 10 9 7
10 11 17 24 26 27 27 27 30 30 29 30 30 30 29 27 25 23 21 21 19 19 19 19 18 16 15 14 14 16 17 17 15 13 13 13 12 9 7 6 7 8 8 7 7 7 7 7 9 9 9 10 10 9 10 10 12 13 13 13 14 15 14 16 16 11 10 13 11 6 3 3 4 5 5 5 7 8 8 9 9 10 12 10 8
12 11 14 20 22 24 25 26 28 28 28 30 30 30 29 26 26 24 22 20 19 19 18 19 18 17 19 20 22 23 20 18 15 14 15 14 13 11 8 5 5 7 7 7 8 7 7 7 8 9 9 9 9 9 11 10 11 13 13 12 13 15 13 14 14 11 13 14 7 3 2 3 2 0 3 4 3 5 8 10 12 12 13 11 9
14 14 14 16 18 21 25 27 27 27 28 29 30 30 28 27 26 25 23 21 20 20 20 20 20 21 23 23 23 22 20 17 16 16 15 15 14 12 10 9 8 8 7 7 7 7 7 7 8 8 8 9 9 10 11 11 11 12 12 11 11 14 13 13 13 11 13 12 7 5 3 2 1 4 4 5 6 9 10 11 15 15 12 12 12
13 14 14 14 17 21 24 25 25 25 27 28 29 30 29 27 26 24 23 21 21 22 21 21 21 21 21 20 20 21 18 15 15 16 16 16 14 12 11 10 10 11 11 10 10 9 8 7 7 7 7 8 9 11 12 11 12 12 11 11 11 12 12 12 13 13 14 11 8 7 2 2 8 7 4 5 11 15 16 16 18 16 13 13 13
12 13 14 14 17 20 21 22 23 23 25 26 27 28 29 27 25 24 23 22 22 21 21 20 19 18 17 18 19 20 18 16 16 17 17 16 14 11 11 10 10 10 10 11 12 10 9 7 5 5 6 7 8 11 12 10 11 11 9 10 10 12 12 12 14 14 14 11 8 6 3 7 15 11 5 4 6 9 15 20 19 16 15 14 13
12 13 13 14 17 19 19 21 23 24 25 25 26 28 29 28 26 25 24 22 21 21 20 19 18 18 17 17 18 18 20 20 18 18 17 14 11 10 12 12 10 8 8 9 10 10 8 6 4 3 3 6 8 10 10 9 11 10 9 8 9 11 12 12 14 13 13 12 9 8 7 10 16 12 9 9 5 3 7 13 16 15 14 14 13
14 14 13 14 17 20 22 23 24 25 26 26 27 28 28 27 26 26 25 24 23 22 21 20 19 17 15 17 19 19 18 17 16 16 14 12 12 13 15 14 11 8 7 8 9 9 9 8 8 6 2 6 9 9 8 8 11 11 10 10 8 9 10 10 11 12 12 12 11 11 11 12 13 11 12 12 9 5 3 4 10 13 11 12 13
13 14 13 14 19 23 25 26 26 27 27 27 27 27 27 27 27 27 26 25 24 22 22 21 18 15 17 20 21 19 16 15 15 15 13 13 14 14 14 13 11 9 8 9 10 10 9 8 9 9 7 7 10 9 8 8 10 12 12 11 9 9 10 8 9 11 11 12 14 16 15 14 12 9 10 11 11 9 5 4 9 11 9 10 13
12 12 12 15 21 25 27 27 27 28 28 27 27 27 28 29 28 28 26 24 22 21 22 21 17 18 21 22 20 19 17 16 15 14 12 11 13 13 12 12 11 9 8 8 9 10 9 7 7 9 10 11 11 10 8 8 10 12 12 12 12 12 11 9 9 10 11 12 14 17 18 19 16 11 14 14 11 10 7 5 9 12 10 10 12
11 10 10 13 17 21 24 25 26 28 28 28 29 29 30 29 28 27 26 24 22 21 22 19 17 19 20 20 20 20 18 16 15 15 12 11 12 12 12 13 11 9 7 7 7 8 9 8 9 10 11 11 11 9 7 7 8 11 13 13 12 12 11 11 10 10 11 13 15 15 16 18 17 15 17 17 16 19 16 9 11 12 9 9 12
10 10 10 10 10 14 18 20 22 24 26 27 28 28 29 28 27 27 26 24 23 23 21 19 18 19 19 20 21 19 17 16 15 15 14 13 13 12 12 12 12 11 10 8 8 8 8 9 10 11 11 10 8 7 9 10 11 12 14 13 12 13 13 13 13 11 10 12 13 13 12 13 12 10 14 17 20 25 22 14 13 13 10 11 14
10 9 10 9 8 12 15 16 17 19 22 24 25 26 26 26 25 27 26 24 24 23 20 19 20 20 20 21 20 18 17 16 15 15 15 13 12 12 12 12 13 13 12 10 10 9 9 10 9 10 11 11 8 8 10 12 12 12 13 14 14 15 15 14 13 12 11 11 12 11 10 9 7 6 11 17 20 25 24 18 14 10 11 12 13
8 8 8 8 9 11 14 15 15 16 17 18 20 22 23 24 25 27 26 23 23 22 19 19 21 20 20 20 19 18 17 16 15 14 13 13 10 11 12 13 15 15 13 12 12 12 12 11 10 10 11 10 9 12 14 15 14 15 16 16 16 15 15 15 14 14 15 15 15 15 13 11 10 10 10 13 20 27 27 25 21 11 5 6 7
6 6 7 8 10 12 13 14 14 15 15 16 17 19 20 22 22 24 24 21 20 21 18 18 20 19 17 18 18 17 17 16 15 13 13 12 10 12 15 16 16 15 13 11 11 11 11 12 12 11 10 10 11 15 17 17 17 18 18 17 16 15 15 16 16 16 16 16 16 15 15 15 13 15 17 15 19 26 24 24 26 20 9 3 3
6 5 6 7 10 12 14 17 17 17 15 13 15 18 18 17 17 19 19 17 16 17 17 16 17 18 16 17 17 17 17 16 15 14 13 12 11 14 16 16 14 13 10 9 9 10 11 12 12 10 10 11 14 17 18 17 16 16 17 17 16 16 17 17 15 15 15 15 14 14 15 16 16 18 20 19 19 19 16 14 17 25 21 9 3
7 6 7 7 10 13 16 19 20 20 20 17 17 19 16 13 14 17 16 14 12 12 15 15 16 18 16 16 17 17 17 16 15 14 13 13 13 15 15 14 13 12 11 10 10 11 12 12 11 10 11 12 13 15 16 15 15 16 17 16 16 16 17 16 14 14 15 14 13 13 14 15 16 17 18 18 18 16 17 16 12 20 26 18 11
7 6 6 6 8 11 16 19 19 22 27 26 21 16 14 11 13 16 17 16 15 14 16 16 17 18 17 16 17 17 17 17 16 15 14 13 14 14 14 13 13 13 13 12 12 12 12 12 12 11 12 12 12 14 15 14 15 17 17 17 16 17 17 16 16 15 15 14 13 12 13 14 14 15 15 17 16 14 13 14 13 13 21 22 21
5 6 5 5 7 9 14 18 17 18 23 25 20 17 16 14 13 15 17 18 17 15 17 17 16 17 17 17 17 17 18 18 17 16 14 14 14 13 13 13 13 13 12 12 12 12 12 13 12 12 13 13 12 13 13 13 15 17 17 17 17 17 17 18 17 15 15 15 15 15 14 14 13 14 15 16 16 14 12 12 13 14 17 21 21
5 5 4 5 7 7 11 18 18 17 18 18 16 20 21 19 17 18 18 18 16 14 16 18 17 18 18 18 17 17 17 17 16 16 15 14 13 13 13 13 13 13 13 13 12 12 13 13 12 13 14 13 12 12 13 14 16 16 16 17 18 18 19 19 17 16 17 17 16 16 15 14 13 13 13 12 12 11 10 12 15 16 17 15 15
4 4 4 5 5 4 6 11 14 17 21 20 18 20 22 22 22 23 22 22 21 18 19 20 20 20 19 18 17 16 16 15 15 15 14 14 14 13 13 13 13 14 13 12 12 12 12 12 13 14 13 13 13 13 14 15 16 17 17 17 18 18 18 18 17 16 15 15 15 16 15 13 12 12 11 9 9 7 7 10 15 16 16 13 13
5 4 4 4 6 5 3 3 10 18 23 24 24 24 25 26 26 26 27 27 26 24 23 23 22 21 19 19 17 15 14 14 15 15 14 14 14 13 13 13 14 15 13 12 12 11 12 13 13 13 13 14 14 13 14 16 15 15 16 17 17 17 16 17 17 16 14 13 13 14 13 11 10 10 10 10 10 9 7 10 14 13 13 13 12
5 5 3 6 8 7 7 5 4 17 21 22 23 23 24 26 25 25 25 25 25 24 23 23 22 20 20 20 18 15 14 14 15 14 12 12 12 13 14 13 13 14 13 12 11 10 12 14 14 13 14 14 13 12 15 16 13 12 16 19 18 16 15 15 16 15 13 11 10 11 10 10 9 9 9 8 8 8 8 9 11 9 9 10 11
5 5 5 7 7 7 10 12 6 11 19 21 22 21 21 23 22 20 21 22 23 23 22 22 22 20 19 20 18 16 15 15 15 12 10 9 9 11 13 12 12 14 12 11 11 9 11 14 13 13 14 14 12 12 14 15 12 12 16 20 18 16 14 13 14 13 11 10 8 8 8 8 8 8 8 6 5 5 7 8 7 7 6 8 10
8 7 7 6 5 7 10 9 7 7 19 21 21 21 20 20 20 18 18 19 18 19 20 21 21 20 18 18 17 17 17 15 14 12 10 8 8 10 11 11 11 11 9 9 12 10 10 12 13 14 15 14 12 12 13 15 13 11 14 16 16 15 13 11 12 12 11 9 8 7 6 6 8 8 7 6 5 5 6 8 8 7 8 8 8
8 7 7 6 6 8 9 4 4 7 16 21 22 22 21 20 19 17 16 15 14 15 16 15 17 18 17 16 15 15 16 15 13 13 11 10 9 9 10 11 11 9 9 10 11 11 11 11 12 13 14 14 13 12 12 14 13 12 13 14 15 15 11 10 12 12 10 10 10 9 8 6 7 8 7 6 6 6 5 5 7 8 8 8 7
9 8 7 6 5 5 7 7 5 6 13 20 23 23 22 21 21 19 18 15 14 15 14 12 13 15 16 15 13 13 15 15 13 11 10 11 11 11 9 10 10 9 11 13 11 11 12 12 12 13 12 12 13 13 13 14 13 13 13 13 14 14 12 12 12 12 12 12 11 12 11 10 9 10 8 7 6 6 5 3 4 6 7 7 5
12 11 11 10 9 8 10 12 11 10 12 16 19 21 21 21 21 20 19 18 16 16 15 13 12 14 15 13 11 11 11 11 11 10 9 9 12 12 11 12 11 9 12 15 13 11 13 13 12 13 13 13 13 13 14 15 14 15 15 14 14 15 14 13 13 13 14 15 14 14 14 13 12 12 11 9 8 7 7 6 4 4 5 5 4
13 13 13 12 11 14 18 20 21 22 20 18 18 19 17 16 17 17 17 17 17 16 16 13 10 9 11 10 10 9 8 9 10 10 9 8 9 11 10 11 10 7 9 15 14 12 13 13 13 13 14 16 15 14 15 16 15 15 16 16 15 16 17 16 17 17 16 17 17 16 16 15 13 14 13 12 11 10 9 9 8 7 6 6 6
13 13 13 12 13 16 19 22 23 25 26 26 26 24 20 15 14 15 16 17 16 15 15 14 9 5 4 7 9 8 7 9 9 8 7 6 6 8 7 7 8 5 4 9 11 11 11 11 11 12 13 16 18 17 17 17 16 16 17 18 18 19 19 19 20 20 19 19 19 17 17 17 15 15 15 14 14 13 13 13 12 11 10 10 10
12 12 12 12 13 16 19 22 23 25 27 28 28 28 28 25 19 15 16 20 23 22 20 19 14 9 5 5 6 6 4 5 7 6 4 3 4 5 5 6 8 7 6 6 7 8 9 9 10 11 11 11 15 19 20 20 18 18 19 21 21 22 22 21 21 21 21 20 20 19 18 18 17 17 17 16 16 16 15 15 15 15 15 15 14
12 12 11 11 13 17 20 22 23 25 27 28 29 28 28 29 29 24 21 24 28 29 28 27 25 23 19 13 9 8 7 5 3 3 2 2 3 4 4 5 7 9 10 11 10 10 10 10 11 12 12 12 13 15 19 21 21 22 23 24 24 24 24 24 24 23 23 22 22 21 20 19 19 18 18 18 18 17 16 15 14 14 15 14 14
11 10 11 12 15 18 21 23 24 25 27 28 29 29 28 29 31 32 30 29 29 29 28 27 26 25 24 22 19 15 13 11 9 5 2 1 1 3 4 6 7 9 11 12 13 13 13 12 11 10 11 13 13 12 16 19 20 22 23 24 25 25 25 26 26 27 26 24 24 24 23 22 21 20 18 17 17 17 16 13 12 12 12 12 12
9 9 10 13 16 18 21 23 23 25 27 29 28 27 28 30 30 31 31 30 29 28 26 24 23 22 22 22 22 21 18 16 14 13 10 7 6 6 5 5 7 8 9 10 11 13 14 15 14 13 12 13 13 12 14 17 20 21 21 22 25 26 26 26 26 25 24 22 21 22 22 22 21 20 19 17 17 17 16 13 12 11 11 10 10
7 9 10 13 16 18 19 20 21 23 26 26 26 24 24 26 27 28 28 26 26 25 23 22 21 19 19 19 20 21 20 18 17 16 14 12 11 11 10 9 7 7 9 10 11 12 13 14 16 16 17 17 17 16 16 17 20 21 20 21 24 26 27 27 25 24 23 22 21 20 21 22 21 19 19 18 17 16 15 14 13 12 11 9 8
12 12 13 14 16 17 18 18 21 23 23 23 23 23 21 22 24 24 23 21 20 21 20 19 18 15 15 15 16 18 19 18 17 17 16 15 14 12 12 12 11 12 11 12 13 14 14 14 15 16 18 20 21 20 21 21 21 22 23 23 24 27 28 28 26 25 24 24 24 23 23 22 20 19 17 15 15 17 16 15 14 13 11 9 7
13 12 12 13 15 16 17 18 19 20 20 19 19 20 20 20 20 20 18 18 17 16 15 15 15 13 12 12 13 13 14 13 13 14 15 15 15 14 14 14 14 15 15 15 16 17 17 17 17 17 18 20 21 21 22 23 23 24 25 25 26 28 29 28 27 26 25 23 23 22 22 21 21 21 18 16 18 20 18 16 15 14 12 10 9
11 10 9 10 11 12 12 14 15 15 14 13 12 13 15 15 16 16 15 15 15 14 12 11 12 11 10 11 11 11 11 11 12 13 13 14 15 16 16 16 16 17 18 18 18 19 20 19 19 20 20 19 20 20 20 21 22 23 24 25 26 29 29 28 27 28 27 24 22 23 22 22 24 25 22 21 24 24 20 18 17 15 14 12 11
9 8 8 8 8 8 9 10 11 10 10 9 7 8 9 10 11 12 13 13 13 12 11 11 10 10 11 11 12 12 12 12 13 14 14 15 15 16 17 18 19 19 19 20 20 21 22 20 19 19 19 19 20 20 20 20 21 21 22 24 26 29 30 29 29 30 28 24 23 25 25 26 28 28 25 25 27 25 21 20 18 17 16 13 11
8 7 7 7 7 7 8 8 8 8 8 7 6 7 8 8 10 11 11 11 11 11 11 12 13 13 14 15 15 15 14 14 15 15 15 16 16 17 18 19 20 20 21 21 22 23 24 24 22 20 20 20 20 20 20 21 22 22 23 24 27 29 30 30 30 30 27 24 23 24 25 26 26 24 23 24 25 23 21 20 19 17 14 13 13
6 6 5 5 7 7 7 7 7 7 6 6 6 7 8 8 9 10 10 10 10 11 12 12 13 15 16 17 17 17 17 17 17 17 17 17 17 18 18 19 20 20 21 22 23 24 25 26 26 25 23 23 22 22 22 22 23 24 24 25 27 29 30 31 30 28 25 22 21 21 21 21 21 19 18 18 18 19 20 21 20 16 14 13 13
8 8 7 6 7 7 6 7 7 6 6 6 6 7 8 8 8 9 10 10 11 12 13 13 14 15 17 18 18 18 18 19 19 19 19 19 19 19 20 20 21 21 22 23 23 23 24 26 27 28 27 26 26 26 25 25 25 26 26 26 26 27 29 30 29 27 25 23 20 18 18 17 17 17 17 14 13 16 20 20 18 15 15 15 14
11 9 6 7 6 5 5 6 6 6 5 4 5 5 5 5 5 6 8 9 10 11 12 13 14 15 17 18 19 19 19 19 19 19 19 20 20 21 22 21 21 22 23 23 23 23 23 25 26 28 29 29 30 31 29 28 27 27 26 25 24 25 28 28 25 24 25 24 23 22 20 17 16 17 17 16 15 16 18 18 17 16 16 15 13
11 8 6 7 5 4 6 7 5 4 4 4 4 3 4 4 4 6 8 9 10 11 13 14 15 15 17 18 19 19 19 19 19 19 19 19 20 21 21 21 20 20 21 21 21 21 21 22 22 23 25 28 29 31 31 28 28 28 26 23 21 24 27 27 24 25 25 24 25 24 21 20 19 19 18 16 14 13 14 14 14 14 13 12 10
10 8 6 6 4 6 8 6 2 1 1 2 2 3 5 7 9 10 12 12 13 14 15 16 17 17 18 19 19 19 19 19 19 18 17 18 19 20 21 20 19 19 20 20 21 23 24 24 24 24 26 30 28 27 30 29 28 28 25 21 20 23 25 26 25 25 24 24 26 27 25 24 23 21 19 16 14 12 11 11 11 11 12 11 11
8 7 4 6 5 7 6 3 1 2 2 4 6 7 10 11 11 11 13 14 15 16 16 17 18 18 19 19 18 18 18 18 18 18 18 18 19 20 21 21 20 21 22 23 22 23 24 24 25 26 28 29 25 21 28 30 28 26 24 21 21 23 25 26 27 27 27 26 28 29 27 26 24 22 20 19 16 14 12 12 12 12 12 12 10
8 7 4 4 4 5 4 3 6 7 7 8 9 10 11 12 12 12 13 13 14 14 14 15 16 17 18 17 16 17 18 18 19 19 19 20 20 21 22 22 21 21 22 23 24 23 23 24 25 27 28 27 23 18 22 28 29 28 27 26 26 27 29 30 31 31 29 28 30 30 29 28 26 25 22 19 17 15 14 14 14 13 12 11 9
9 5 3 2 2 4 5 7 9 9 8 9 9 9 10 11 11 11 10 10 10 11 12 12 13 14 15 16 16 17 18 19 19 20 20 20 21 21 22 23 22 21 21 22 24 25 24 25 27 28 26 25 24 21 19 23 27 29 29 29 29 30 32 34 35 34 32 32 32 32 31 31 30 27 24 21 18 17 17 16 15 13 12 10 9
5 3 3 2 4 4 5 7 8 7 8 9 9 7 7 8 7 7 7 7 8 10 11 11 12 12 14 15 16 17 18 18 18 19 21 21 21 20 21 22 22 22 22 22 23 24 24 25 27 27 23 21 22 21 19 20 22 26 29 28 28 31 34 36 36 35 35 36 37 35 33 33 31 28 25 22 19 18 19 18 16 14 13 12 11
2 3 4 5 6 6 6 7 7 7 7 7 5 4 5 5 5 6 7 8 9 9 10 12 13 13 14 15 16 17 17 18 19 20 21 22 22 22 20 20 21 23 24 25 25 25 24 23 25 25 21 20 21 20 19 18 18 20 26 27 26 30 34 36 38 39 37 37 37 36 34 33 30 27 23 22 22 22 22 20 17 16 16 15 14
Wind_Direction
154 140 126 121 121 121 123 131 134 137 139 140 141 143 142 139 136 137 143 145 142 140 143 146 144 145 150 151 150 149 144 133 129 127 123 130 136 133 147 172 189 193 188 182 188 196 191 187 189 196 190 177 181 181 168 160 156 153 148 151 153 148 141 141 155 151 132 121 115 110 113 114 111 113 118 113 115 132 128 111 112 113 112 111 118
144 130 122 122 123 121 123 132 139 142 140 140 143 142 144 145 141 140 144 147 147 145 148 150 148 147 149 149 146 146 143 129 120 120 120 119 117 119 136 161 178 178 174 171 168 177 184 180 175 181 178 173 184 185 170 169 167 161 159 160 164 160 149 145 151 149 138 133 125 108 94 98 105 104 111 126 138 146 142 126 118 115 115 105 106
132 129 124 121 125 124 124 134 143 146 143 143 143 142 146 147 146 146 146 147 148 148 148 145 139 137 141 137 129 131 132 119 108 107 110 109 109 117 135 152 163 163 163 166 162 164 176 175 174 184 185 180 188 184 173 178 175 170 174 175 170 163 154 153 158 157 147 139 127 111 93 88 80 78 100 134 150 152 156 146 126 115 117 112 110
130 130 123 122 127 127 128 138 147 150 149 147 145 145 147 148 150 151 148 147 148 149 148 140 129 120 122 120 116 117 117 111 107 107 105 105 108 111 119 119 122 140 148 150 146 148 157 157 164 180 188 189 193 182 173 176 173 171 178 184 178 166 156 161 171 167 155 150 129 100 110 91 68 86 126 113 142 157 153 154 144 127 121 119 112
137 132 126 127 130 131 135 143 150 152 152 151 150 150 150 150 152 153 151 150 151 153 149 141 129 118 117 117 114 113 112 114 119 116 106 102 104 103 102 99 92 97 108 119 124 133 142 141 149 163 176 186 188 179 173 172 173 178 180 184 188 178 164 166 177 174 164 159 141 124 103 74 191 201 151 71 74 112 114 133 149 142 129 123 114
135 129 129 131 133 135 139 146 152 153 153 154 153 153 152 151 153 155 154 153 154 155 149 142 134 126 126 126 121 118 116 119 122 119 114 110 109 105 103 100 91 88 88 93 103 112 116 113 127 148 163 175 179 178 177 174 177 186 190 190 195 188 175 169 176 179 173 163 144 136 115 165 173 165 145 70 73 88 88 104 135 140 131 129 119
127 124 129 131 138 141 143 150 154 154 154 155 155 155 154 154 155 158 157 154 153 153 148 142 135 129 129 126 125 123 116 114 117 118 118 117 113 113 115 105 94 91 88 89 95 96 93 91 100 121 144 159 166 176 184 182 180 190 201 201 197 190 185 177 176 177 173 171 166 150 115 154 164 156 147 140 86 77 82 94 114 125 123 127 124
129 130 133 136 145 145 143 149 155 157 155 157 160 160 160 158 158 160 160 155 153 149 144 138 129 125 125 123 125 125 116 112 117 119 118 116 113 121 127 116 104 103 99 98 100 97 93 86 78 83 136 159 149 156 175 175 172 181 190 196 192 184 184 179 177 180 175 175 178 158 131 148 163 162 145 137 123 81 82 91 103 110 111 116 122
135 140 143 145 146 142 142 148 158 160 157 159 163 164 165 162 161 163 162 157 154 149 141 134 131 132 137 136 130 126 121 119 120 120 118 118 118 125 129 121 115 114 111 116 119 116 114 101 88 76 94 176 158 143 152 162 169 173 173 183 190 180 184 184 177 179 177 175 173 155 140 146 154 155 147 136 128 128 111 102 113 110 110 117 121
140 142 143 147 144 142 145 150 159 164 161 161 163 166 167 165 165 166 163 159 156 153 146 141 143 150 151 145 136 129 129 129 127 126 124 121 120 122 126 125 122 119 108 115 121 118 121 118 101 85 88 147 162 151 144 151 171 179 172 170 177 177 182 184 165 164 173 174 167 155 151 153 146 148 159 146 130 128 130 143 137 130 136 136 124
144 136 133 139 141 146 149 152 161 165 164 163 165 168 170 170 170 168 165 162 161 160 156 153 153 152 148 144 138 137 140 139 135 135 134 130 125 121 127 133 134 130 111 108 117 110 104 114 114 98 95 116 139 148 144 142 160 174 165 152 161 170 172 171 153 151 166 171 165 161 165 166 161 167 176 164 142 136 136 141 149 150 156 161 141
139 128 130 135 139 148 154 158 164 166 165 165 167 171 173 174 173 170 169 168 166 166 162 158 153 147 144 142 141 144 147 146 141 142 143 141 136 131 133 135 136 139 126 104 109 110 104 111 116 111 106 113 125 134 139 140 147 157 152 143 152 160 157 157 150 145 157 162 164 169 173 175 174 177 179 171 158 154 151 151 164 162 157 171 158
135 134 138 140 143 152 157 162 166 167 166 165 167 171 172 174 175 173 173 171 168 165 161 157 151 148 147 146 147 150 149 147 147 150 150 147 146 145 144 140 135 133 129 117 114 117 116 120 119 112 109 111 118 132 139 140 138 141 147 149 152 149 144 146 145 142 148 154 162 169 171 177 181 186 189 179 162 158 155 153 164 161 144 145 143
142 146 147 148 151 154 156 160 166 168 166 164 166 170 171 173 174 174 174 173 170 166 163 155 150 151 151 150 151 150 149 149 153 156 154 151 153 155 154 148 137 128 127 129 128 122 116 120 124 118 114 109 112 134 143 144 144 141 144 147 144 143 139 136 133 131 135 139 147 149 146 152 142 138 184 185 168 161 158 154 158 156 146 143 133
142 149 147 146 146 151 152 152 159 161 160 161 163 170 174 173 175 176 175 173 171 171 166 154 150 151 151 151 150 148 150 151 152 154 152 149 153 161 158 149 138 130 129 132 130 126 119 117 122 126 125 117 117 131 132 133 137 133 134 136 137 139 135 129 125 123 125 124 124 124 120 115 97 97 137 172 171 166 162 159 157 147 136 144 130
138 146 139 131 137 148 141 131 137 146 152 161 166 172 177 177 178 178 176 173 172 173 166 151 149 151 150 152 150 150 151 149 146 145 144 146 150 153 150 144 140 135 133 135 135 134 129 125 125 131 132 121 123 133 130 128 132 131 133 135 136 139 133 125 122 119 121 120 117 118 114 104 96 101 111 124 146 157 160 162 162 158 148 131 118
137 131 116 113 123 130 123 121 130 138 143 159 177 183 181 179 178 173 170 169 168 168 162 155 154 150 150 155 155 155 156 152 148 142 142 147 148 145 143 140 141 140 138 141 142 141 140 138 134 133 133 121 121 132 133 134 138 139 140 140 138 141 135 126 122 118 122 125 120 118 114 106 102 104 105 103 110 121 123 126 154 163 157 144 126
124 105 94 97 104 112 124 137 145 146 147 162 187 194 183 169 167 163 162 165 164 157 153 158 163 156 156 162 162 162 160 156 152 148 148 146 142 142 142 138 137 137 136 138 140 142 143 143 140 136 135 127 124 133 136 136 138 138 139 139 138 138 132 125 123 121 122 125 124 121 116 111 106 102 100 96 93 96 98 90 110 156 159 149 138
115 101 97 100 103 115 135 148 153 156 162 171 179 182 177 173 166 156 156 160 160 158 155 157 161 162 163 167 165 163 161 159 157 156 153 146 142 143 142 139 138 140 142 142 142 142 141 143 145 142 141 137 135 140 142 141 139 136 135 135 135 135 129 122 121 124 126 128 128 125 121 115 109 106 99 95 94 95 100 91 89 135 157 152 139
108 105 99 96 101 113 132 144 154 162 170 174 164 148 159 186 183 157 155 160 158 158 159 157 161 168 168 166 164 162 163 164 164 162 157 149 148 149 145 144 145 147 149 146 145 146 146 149 152 148 145 143 144 148 150 149 144 141 141 142 142 141 134 126 124 126 130 131 126 120 119 116 114 111 103 99 98 97 102 103 96 112 138 145 139
111 115 102 96 102 113 136 149 160 162 163 169 153 137 148 171 175 160 156 161 162 164 164 164 171 175 170 167 166 166 167 167 167 167 162 156 156 155 153 151 149 150 150 148 150 151 151 154 156 153 149 147 149 152 152 151 148 148 150 150 148 144 137 132 127 128 131 129 124 121 120 119 116 113 111 110 105 103 111 119 113 112 122 136 144
104 100 77 81 88 90 134 157 167 155 151 155 147 140 150 159 160 157 154 157 162 169 171 171 177 177 172 171 172 171 171 170 169 169 166 164 163 159 157 155 152 152 152 155 158 156 156 157 154 155 155 153 154 155 155 154 152 153 153 151 149 145 141 139 135 134 137 133 125 121 121 123 118 115 118 111 100 107 127 132 127 121 119 132 147
83 75 53 57 56 44 55 186 176 152 148 155 154 154 158 156 154 153 154 158 161 165 168 170 173 174 173 174 174 175 175 170 168 169 169 169 166 160 156 154 155 157 160 165 165 165 167 162 158 159 159 157 158 159 160 159 157 161 162 156 152 149 146 142 136 134 139 142 135 126 126 128 125 122 118 104 95 102 115 132 135 126 120 127 137
69 77 59 43 37 25 10 349 147 136 135 143 144 144 148 150 154 154 154 157 159 161 164 166 167 167 169 170 169 170 170 164 163 166 170 173 172 167 160 157 163 164 165 169 171 177 179 170 164 163 160 160 162 158 161 162 153 154 161 156 151 149 146 143 141 136 139 149 147 143 142 139 136 134 126 112 106 100 96 121 141 139 130 125 123
41 62 64 50 35 16 5 350 357 103 112 119 122 124 130 139 145 146 147 152 156 160 161 162 163 160 161 165 165 165 164 161 163 168 172 174 175 174 167 164 166 167 170 177 176 181 186 178 170 166 164 164 162 159 163 164 149 138 151 155 153 150 145 149 155 151 151 156 152 149 155 155 153 145 130 119 119 108 90 99 129 145 149 134 123
41 49 54 54 52 37 24 343 318 83 99 104 108 111 119 128 130 131 135 138 143 151 156 159 161 157 154 155 157 162 165 164 167 172 173 168 168 176 174 167 163 169 184 188 180 182 185 179 175 172 171 168 163 163 166 164 158 149 151 155 155 153 152 159 167 165 163 164 158 154 154 160 164 157 146 138 138 140 111 92 106 132 149 147 134
48 50 49 40 41 49 50 31 343 59 90 99 99 98 103 112 115 119 126 124 122 131 143 157 164 159 156 156 155 160 166 168 170 173 176 175 170 172 174 171 171 184 199 189 184 192 190 184 183 178 176 175 170 169 168 166 168 165 160 160 160 162 165 165 163 165 164 162 165 173 170 167 170 165 165 169 158 160 156 109 106 128 144 148 145
65 67 75 65 59 80 96 98 82 69 88 95 94 92 93 100 107 110 113 114 118 128 137 154 162 154 150 154 156 160 165 166 165 164 170 179 180 178 181 189 198 214 213 196 190 200 199 196 196 189 187 189 183 180 181 178 175 171 168 170 172 174 175 170 167 170 172 169 176 185 182 178 179 175 180 198 199 192 194 177 139 140 148 151 156
64 59 63 62 61 66 68 69 66 63 73 83 89 92 93 96 102 103 100 99 103 113 124 139 149 145 141 144 150 155 163 173 177 174 171 176 183 186 196 210 222 238 224 204 195 201 203 203 204 202 200 203 202 198 195 194 191 185 181 181 185 186 183 184 188 188 183 183 189 193 191 187 186 187 191 200 210 218 222 224 224 202 185 182 184
58 53 51 50 49 49 50 49 45 43 46 52 62 74 86 94 97 93 89 93 99 103 108 111 110 121 133 140 146 150 157 169 176 179 181 182 187 191 202 216 225 238 219 203 197 201 207 209 208 210 211 211 214 210 204 204 205 201 194 191 192 193 193 197 199 196 194 195 197 201 203 201 199 199 203 203 206 216 222 227 238 244 240 229 220
57 50 45 43 40 40 43 44 40 38 38 40 43 48 57 71 86 91 88 86 89 94 101 101 91 92 136 145 148 154 161 164 166 170 178 188 193 196 206 217 219 226 211 199 199 203 212 217 214 218 222 220 219 216 212 211 211 207 201 199 200 200 202 207 205 203 204 203 202 205 207 209 209 207 208 211 213 215 218 222 229 233 239 239 231
57 50 43 39 38 37 38 37 36 36 35 36 39 41 43 45 53 79 94 83 75 75 79 81 73 62 82 129 137 135 134 151 165 167 167 188 203 204 218 229 230 240 246 238 229 219 222 235 237 238 243 238 227 219 215 214 212 209 207 208 209 207 208 213 213 212 214 212 208 208 209 211 214 215 215 216 217 218 221 225 228 228 232 235 233
56 51 43 37 38 39 39 38 36 36 35 37 40 41 41 41 46 60 74 74 70 68 66 62 57 53 56 63 75 81 75 78 111 148 162 200 231 240 246 248 247 253 256 259 262 251 238 239 246 251 256 257 249 232 220 215 211 211 213 214 214 214 216 220 221 222 223 219 215 214 213 214 217 221 224 223 224 226 226 227 230 232 235 235 232
57 55 47 41 40 39 40 40 38 37 38 41 42 42 42 44 47 53 58 61 63 64 60 56 52 48 47 47 50 53 52 50 52 51 62 144 282 295 277 256 252 261 265 265 268 265 256 246 245 251 251 249 252 245 232 223 215 213 215 215 217 219 221 224 226 227 226 222 219 219 217 217 219 222 222 222 225 224 222 226 232 231 232 232 231
52 52 47 43 43 41 38 37 36 38 40 41 39 40 43 46 47 49 51 54 56 56 53 50 47 43 39 37 36 33 31 32 35 36 42 48 39 21 354 304 274 272 277 279 278 274 267 257 252 254 255 250 245 241 238 233 226 221 218 217 219 219 219 221 222 223 224 221 218 220 222 223 225 223 218 216 220 221 222 225 225 220 221 226 228
62 55 51 52 53 52 46 42 40 42 42 39 35 34 39 45 48 49 49 52 53 51 46 43 41 37 33 29 26 22 17 12 10 13 19 22 24 24 17 3 338 312 298 293 293 288 280 271 262 258 260 260 255 250 248 243 236 232 230 228 225 223 223 224 224 228 233 232 229 232 236 235 229 221 217 218 222 224 222 214 208 211 218 218 214
87 80 73 69 67 63 58 54 51 47 43 38 34 31 33 39 46 49 47 49 50 46 41 38 34 29 26 25 21 14 9 5 1 360 357 355 354 352 351 353 351 342 329 315 306 300 291 282 274 268 265 263 260 257 256 254 249 244 241 239 235 231 230 231 232 235 238 238 238 238 236 233 227 221 225 234 233 226 217 205 199 203 206 199 194
102 98 91 81 74 69 63 59 57 52 45 37 30 26 28 35 43 46 44 42 42 37 32 30 25 21 17 15 14 9 5 3 1 357 351 345 341 336 330 330 331 330 327 322 319 314 304 292 283 279 274 267 263 261 259 258 257 252 249 247 243 236 231 230 230 230 231 233 233 229 227 232 236 234 240 250 241 225 213 204 201 198 193 189 190
109 108 103 94 84 76 70 68 68 65 59 49 36 27 29 31 35 41 43 40 34 28 21 17 14 12 8 3 2 1 358 355 351 347 342 335 330 326 320 316 316 316 313 310 309 310 309 303 292 285 279 272 268 265 262 258 255 253 252 251 245 237 231 230 230 231 232 234 232 229 231 243 251 248 246 244 234 222 211 208 205 196 190 190 188
123 121 114 110 104 93 84 78 78 80 75 66 56 49 45 37 35 41 42 31 19 11 7 6 4 1 356 353 352 351 348 346 343 339 337 332 327 323 318 314 313 311 308 304 301 300 301 302 298 290 281 274 269 266 263 259 255 251 250 247 242 236 233 234 235 235 235 236 237 239 243 250 252 247 240 232 222 213 208 207 202 194 191 185 173
130 132 128 126 119 105 94 85 78 76 72 66 63 60 53 44 40 39 30 17 10 7 7 5 1 357 355 355 357 356 351 347 343 337 332 329 326 324 322 320 317 313 307 302 299 296 295 295 294 288 278 270 268 267 264 262 257 249 245 242 240 237 237 237 236 234 235 237 241 245 246 246 240 229 219 217 212 206 203 201 196 194 191 178 166
99 88 95 113 112 97 88 89 80 64 53 49 51 47 38 35 36 27 15 11 14 13 6 358 354 355 355 355 353 350 348 345 344 342 337 332 328 324 322 321 322 320 315 308 301 297 295 292 289 286 277 269 267 266 264 263 258 248 242 240 239 239 240 238 234 233 235 236 236 235 231 226 216 202 200 208 208 202 196 191 189 191 186 174 166
98 64 44 65 94 94 85 84 76 58 45 40 42 37 25 25 28 17 9 9 7 1 355 351 351 352 350 349 347 345 343 342 341 340 337 334 331 327 323 322 321 322 323 320 312 305 300 295 292 290 283 272 266 263 262 261 256 249 243 240 239 238 236 233 231 230 227 223 216 206 196 188 183 182 190 198 197 190 184 178 176 176 171 165 161
96 75 39 39 67 87 90 81 63 51 52 49 49 42 12 6 15 8 2 1 355 352 353 353 353 349 345 343 341 339 339 338 336 335 332 330 329 326 323 323 321 321 322 324 323 319 310 302 298 297 292 282 272 263 257 255 255 253 246 237 234 231 227 225 224 222 218 209 197 186 180 176 173 175 179 179 175 169 164 160 159 159 158 160 163
91 79 46 30 43 85 93 81 58 48 54 48 43 17 328 341 21 18 12 11 9 8 7 2 356 349 343 339 335 333 332 332 331 330 329 328 327 324 321 322 323 324 326 328 332 334 330 324 320 316 313 308 291 268 251 244 246 249 245 237 230 225 221 218 214 211 206 197 187 184 186 186 179 172 170 169 165 160 154 151 152 154 154 158 163
87 80 41 13 34 92 96 85 71 105 105 44 16 346 352 23 34 24 18 16 11 7 3 358 353 347 341 337 333 330 329 328 328 329 328 327 327 326 325 326 327 329 330 331 333 334 332 330 330 326 325 327 314 274 242 230 231 234 234 231 226 218 213 213 210 202 192 184 183 186 187 184 177 174 177 178 174 170 164 151 147 151 153 152 153
88 90 50 5 43 90 105 108 81 89 78 40 29 27 30 34 29 15 11 6 0 357 355 351 347 343 339 335 332 329 328 328 329 329 327 326 327 328 329 329 330 329 328 326 327 328 326 324 324 320 318 324 318 275 236 224 224 226 225 223 215 206 201 201 199 191 184 182 185 185 181 180 179 178 180 179 173 167 162 151 150 156 157 154 154
86 87 48 1 45 78 79 64 56 53 49 39 31 29 28 26 18 8 3 359 355 353 349 343 338 334 332 331 330 329 330 329 328 328 326 324 324 325 325 326 327 327 325 324 322 323 323 321 319 316 311 311 311 288 248 231 224 220 217 214 206 198 196 196 192 187 181 178 179 178 175 174 175 173 171 168 164 160 156 154 156 157 156 159 165
64 59 3 339 70 72 52 50 48 43 40 35 29 24 17 10 6 0 355 355 357 353 347 343 337 329 324 325 326 326 324 322 320 319 318 317 317 318 319 319 320 320 321 322 321 321 322 320 317 313 304 294 295 297 283 259 240 225 216 211 207 203 202 200 196 191 183 174 171 171 170 169 170 169 164 160 157 153 152 156 161 163 166 174 181
50 12 333 31 81 86 69 54 44 36 31 26 24 20 5 354 356 3 1 359 355 347 345 345 341 332 324 321 324 324 320 318 316 313 310 309 308 310 311 312 313 313 311 310 311 313 317 318 316 312 300 282 280 290 296 289 270 245 229 222 217 214 210 204 199 193 184 176 171 170 170 170 168 163 157 154 155 158 159 162 167 172 176 178 178
62 10 21 56 74 77 67 55 44 29 18 14 3 331 319 336 7 15 4 353 344 340 340 338 334 329 323 319 321 322 318 315 312 307 305 305 304 305 306 306 309 309 306 303 302 305 309 312 315 314 301 276 272 280 285 293 293 266 242 231 220 214 211 206 200 192 182 174 171 171 171 170 166 162 161 165 169 170 167 165 168 177 183 180 174